User: anonymous   Login
Location: Unspecified
(0.0000°N, 0.0000°E)
Time: 15:33:12
(UTC+00:00)
Language:

Orbcomm A7 (FM11) - Orbit

View from above orbital plane
View from above orbital plane
View from above satellite
View from above satellite

Ground track
Ground track

The orbit data is extracted from the following two-line orbital elements,

1 25114U 97084C   18115.63017148  .00000099  00000-0  77980-4 0  9990
2 25114  45.0153 185.2637 0004131  48.6814 311.4390 14.38713657 65305
Epoch (UTC): 25 April 2018 15:07:26
Eccentricity: 0.0004131
inclination: 45.0153°
perigee height: 760 km
apogee height: 766 km
right ascension of ascending node: 185.2637°
argument of perigee: 48.6814°
revolutions per day: 14.38713657
mean anomaly at epoch: 311.4390°
orbit number at epoch: 6530

The dashed part of the orbit path shows where the satellite is in the earth's shadow,  

DLR